Wind_Speed
12 13 13 13 11 11 12 12 14 14 15 16 16 16 16 16 16 17 17 18 19 19 18 18 19 19 19 19 19 19 19 19 20 20 20 20 21 22
13 13 14 14 14 13 13 14 14 15 16 17 17 17 17 18 18 18 18 18 19 20 20 20 20 20 20 21 21 20 20 21 21 21 22 22 23 22
16 16 16 16 16 16 16 16 16 16 17 17 17 18 19 19 19 19 19 19 19 20 20 21 22 22 22 22 23 22 22 22 22 23 23 24 24 23
17 17 17 18 18 18 18 18 18 18 18 18 18 19 19 19 20 20 20 20 20 21 22 23 22 22 23 24 24 24 24 23 24 24 25 25 24 25
19 19 19 19 19 19 19 19 19 19 19 19 20 20 20 21 21 21 22 22 22 23 23 23 23 23 24 25 24 24 24 25 24 25 24 24 25 25
22 22 22 21 21 21 22 22 22 22 22 22 22 22 22 22 23 24 24 24 24 24 24 24 24 25 25 25 25 26 26 26 26 26 26 26 27 27
25 25 25 25 25 24 24 24 25 24 24 24 24 24 24 25 25 25 26 26 26 26 26 26 26 26 26 26 27 27 27 27 28 28 28 28 28 29
26 26 26 27 27 27 26 26 26 26 26 26 26 26 26 27 27 26 26 26 26 27 27 27 28 27 28 27 28 28 28 29 29 29 29 30 30 30
28 28 28 28 29 29 29 29 29 29 29 29 28 28 28 28 29 28 28 28 28 28 28 28 28 28 29 29 30 30 29 30 30 30 31 31 31 30
29 29 29 30 31 31 32 32 31 31 32 32 31 30 30 30 30 30 29 29 29 29 29 29 29 30 31 31 31 31 32 31 30 30 31 31 31 31
30 30 31 32 33 33 33 33 32 31 32 32 32 32 31 31 31 31 31 30 30 30 30 30 30 31 32 33 33 33 33 33 31 31 32 32 32 32
31 31 31 32 33 34 34 34 32 32 32 32 33 33 32 32 32 32 32 31 31 31 32 32 32 32 33 34 34 33 33 33 33 33 33 33 34 34
33 33 33 34 34 35 34 34 33 33 33 33 33 33 33 33 33 33 32 33 33 33 33 34 34 34 34 34 34 33 33 33 34 34 34 34 35 35
34 34 35 35 36 36 36 35 35 35 35 35 35 35 35 34 34 34 34 34 34 34 34 34 35 35 35 35 34 34 34 34 34 34 34 35 36 36
36 36 36 36 36 36 36 36 36 37 37 37 37 37 37 36 36 35 35 35 36 35 34 34 34 34 35 34 35 34 34 34 34 34 35 35 35 36
36 37 36 36 36 36 36 37 38 38 38 38 38 38 38 38 37 36 36 36 36 35 34 34 34 34 34 34 35 34 34 35 35 35 35 35 36 36
37 37 37 37 38 38 38 39 39 38 38 37 37 37 37 38 37 37 37 37 36 35 34 34 34 34 34 35 34 33 34 34 34 35 35 36 36 37
38 38 38 39 39 39 40 39 39 38 37 37 37 37 37 38 38 37 37 36 35 34 34 34 34 35 35 35 34 35 35 34 35 35 35 35 35 35
38 38 38 38 39 39 39 38 37 36 36 36 37 37 37 37 37 37 37 37 36 36 36 36 36 36 36 35 35 35 35 34 34 34 34 35 35 35
38 38 38 38 38 38 37 37 36 36 36 36 37 37 37 37 37 37 37 37 38 37 37 36 36 37 37 36 36 36 36 36 35 35 35 35 34 34
36 36 36 36 37 37 36 36 36 36 36 36 36 36 36 37 37 37 36 36 36 36 37 37 37 37 37 37 37 36 36 36 36 35 35 35 35 35
35 35 36 36 36 36 36 36 36 35 35 35 35 36 36 36 36 35 35 35 36 36 36 37 37 37 37 37 36 36 36 36 36 35 36 36 35 35
34 34 34 33 33 33 33 34 34 34 34 34 34 34 35 35 34 35 35 36 36 36 36 36 36 36 36 36 36 36 36 36 36 36 36 35 35 35
Wind_Direction
274 275 272 271 273 276 277 275 272 269 270 271 271 267 266 267 269 271 272 269 267 267 268 270 270 274 274 275 276 276 275 274 274 274 275 275 275 275
275 277 274 274 273 275 275 274 273 271 270 271 271 269 269 269 271 273 271 272 272 269 269 269 269 272 274 274 275 277 277 275 275 274 273 274 276 277
274 275 274 274 274 273 273 273 272 272 272 273 273 272 272 272 271 273 271 271 273 271 270 270 271 271 272 272 275 276 276 276 275 273 272 274 274 275
272 273 275 276 274 275 275 276 276 273 272 273 275 276 275 273 272 272 271 270 271 273 272 272 273 273 274 274 275 273 273 274 275 274 274 274 275 276
274 275 276 278 277 276 277 278 278 275 274 275 276 276 276 275 273 272 272 272 272 274 275 275 275 274 274 275 276 276 274 273 274 274 274 275 277 278
274 275 277 277 276 276 275 276 276 276 275 276 276 276 275 274 275 275 274 273 273 274 275 276 277 276 275 275 275 274 273 272 273 274 275 276 276 276
273 274 274 273 274 275 274 274 275 276 276 278 276 275 274 274 275 275 275 273 273 273 274 275 277 278 277 275 274 273 273 272 272 274 274 274 274 275
272 272 273 272 273 274 274 275 276 277 276 277 277 276 275 275 275 274 273 272 272 271 272 273 275 277 277 277 276 275 273 273 273 274 274 274 274 273
273 273 272 272 272 273 274 275 277 276 275 275 275 275 274 274 274 273 272 272 271 272 271 273 274 276 276 277 277 276 275 275 274 274 274 276 275 275
276 274 273 273 273 274 275 276 275 275 274 274 273 274 274 273 273 273 272 272 272 272 272 273 273 275 275 275 276 275 274 274 274 275 275 275 275 276
274 274 273 273 273 275 275 275 273 273 273 273 272 272 272 272 272 272 272 272 272 273 273 273 274 274 275 275 275 275 273 273 273 274 275 275 276 277
274 274 273 274 275 276 275 273 273 272 272 271 271 270 270 270 271 272 271 271 272 272 274 275 274 274 274 275 276 275 274 271 271 271 273 273 274 275
274 273 273 274 275 275 274 273 272 271 270 271 271 270 269 269 270 271 271 271 272 273 273 273 274 274 273 273 273 273 274 271 270 271 272 272 274 274
274 273 273 274 275 274 273 272 271 271 271 271 270 270 268 269 270 272 272 271 272 272 272 272 272 272 273 272 272 272 272 271 270 270 271 273 275 276
274 273 273 274 274 272 271 271 271 272 272 271 270 270 268 268 270 271 272 273 273 273 273 273 272 272 272 273 274 274 274 273 271 271 272 273 275 276
273 273 272 272 273 273 274 274 273 273 272 271 271 271 271 270 269 270 270 271 273 274 274 274 274 273 273 275 275 274 274 274 274 272 273 274 275 276
272 272 273 274 274 274 274 274 273 272 271 271 272 272 271 270 270 269 269 270 271 272 272 273 273 273 274 273 273 274 274 274 274 275 277 277 278 279
271 272 273 274 274 273 272 271 271 271 271 271 272 272 271 271 270 269 269 269 270 270 270 271 272 273 273 273 274 275 275 276 276 277 278 279 280 280
272 272 273 273 273 272 271 271 271 271 271 271 271 272 271 271 271 270 270 271 270 270 270 269 270 271 271 272 274 274 275 275 276 277 278 280 280 279
272 272 272 273 273 272 272 272 272 270 270 271 272 272 271 271 271 271 271 272 272 271 270 270 270 270 270 271 272 273 274 275 276 277 279 280 279 278
274 274 274 273 273 273 272 272 272 271 270 270 270 270 271 272 272 271 273 274 274 271 270 270 271 272 272 272 272 272 272 273 275 276 277 278 278 278
274 274 274 275 274 274 273 273 273 273 273 271 270 270 271 271 272 273 274 274 275 273 270 269 270 271 272 272 272 272 272 273 274 274 276 276 277 277
275 275 275 275 275 275 274 273 273 273 273 273 272 270 271 272 273 274 274 274 274 273 271 270 270 271 272 272 272 272 273 274 274 274 276 278 278 278
Height
5869 5869 5868 5867 5866 5866 5865 5865 5865 5864 5863 5863 5862 5862 5861 5861 5860 5859 5859 5858 5858 5858 5857 5857 5857 5856 5856 5855 5854 5853 5853 5852 5851 5850 5850 5849 5848 5847
5865 5864 5864 5863 5862 5862 5861 5860 5860 5860 5859 5858 5858 5857 5857 5856 5855 5854 5854 5853 5853 5852 5852 5852 5851 5851 5850 5850 5849 5848 5847 5846 5845 5845 5844 5843 5842 5841
5860 5860 5859 5859 5858 5857 5857 5856 5855 5855 5854 5854 5853 5852 5851 5850 5850 5849 5848 5848 5847 5847 5846 5846 5845 5845 5844 5844 5843 5842 5841 5841 5840 5838 5837 5836 5835 5835
5855 5855 5854 5853 5853 5852 5852 5851 5850 5849 5849 5848 5847 5846 5846 5845 5844 5844 5843 5842 5842 5841 5840 5839 5838 5838 5838 5837 5836 5835 5835 5834 5833 5832 5831 5830 5829 5828
5849 5849 5849 5848 5847 5847 5846 5845 5844 5844 5843 5842 5841 5841 5840 5839 5838 5838 5837 5836 5835 5834 5833 5833 5832 5831 5831 5830 5829 5828 5828 5827 5826 5825 5824 5823 5822 5821
5843 5843 5842 5842 5841 5840 5839 5838 5838 5837 5836 5836 5835 5834 5834 5833 5832 5831 5830 5830 5829 5828 5827 5826 5825 5824 5823 5823 5822 5821 5820 5819 5818 5818 5817 5816 5814 5813
5836 5835 5835 5834 5833 5833 5832 5831 5830 5830 5829 5829 5828 5827 5827 5826 5825 5824 5823 5822 5822 5821 5820 5819 5818 5817 5816 5815 5814 5813 5812 5811 5810 5809 5808 5807 5806 5805
5828 5827 5826 5825 5825 5824 5824 5823 5822 5822 5821 5821 5821 5820 5819 5818 5817 5816 5815 5814 5814 5814 5812 5811 5810 5809 5808 5807 5805 5804 5804 5803 5802 5801 5800 5799 5797 5796
5819 5818 5818 5817 5817 5816 5815 5814 5813 5812 5812 5812 5812 5811 5811 5810 5808 5807 5807 5806 5805 5805 5804 5803 5802 5801 5800 5798 5797 5796 5795 5794 5793 5792 5791 5790 5788 5787
5809 5809 5808 5808 5807 5806 5805 5805 5804 5803 5803 5802 5802 5802 5801 5800 5799 5798 5798 5797 5796 5796 5795 5794 5793 5792 5791 5789 5788 5786 5785 5784 5783 5782 5781 5780 5779 5778
5800 5799 5799 5798 5797 5796 5796 5795 5794 5793 5792 5792 5792 5792 5791 5791 5790 5789 5788 5787 5787 5786 5786 5785 5784 5782 5781 5780 5778 5777 5776 5775 5774 5773 5772 5771 5770 5769
5789 5789 5789 5788 5787 5786 5785 5785 5784 5783 5782 5782 5782 5782 5781 5780 5780 5779 5778 5777 5777 5776 5776 5775 5773 5772 5771 5770 5768 5767 5766 5765 5764 5763 5762 5761 5760 5758
5779 5779 5778 5778 5777 5776 5775 5774 5773 5773 5772 5772 5771 5771 5771 5770 5769 5769 5768 5767 5766 5766 5765 5764 5763 5761 5760 5760 5758 5757 5756 5755 5753 5752 5751 5750 5749 5748
5768 5768 5768 5767 5766 5765 5763 5763 5762 5762 5761 5761 5761 5760 5760 5759 5758 5758 5757 5756 5755 5755 5754 5753 5752 5750 5749 5748 5747 5746 5745 5744 5743 5742 5741 5739 5738 5737
5757 5757 5756 5755 5754 5753 5752 5751 5751 5751 5750 5749 5749 5749 5748 5748 5747 5746 5746 5745 5744 5743 5742 5741 5740 5739 5738 5738 5737 5735 5734 5733 5732 5731 5730 5729 5727 5726
5746 5745 5744 5744 5743 5742 5741 5740 5740 5739 5738 5738 5737 5737 5736 5735 5735 5735 5734 5733 5733 5732 5731 5730 5729 5728 5727 5726 5725 5724 5723 5722 5721 5719 5718 5717 5716 5715
5734 5733 5732 5732 5731 5730 5729 5728 5727 5726 5726 5725 5725 5724 5724 5723 5723 5723 5722 5721 5721 5721 5720 5719 5718 5717 5716 5715 5715 5714 5712 5711 5710 5709 5707 5706 5705 5704
5722 5721 5720 5719 5719 5718 5717 5716 5715 5714 5714 5713 5713 5712 5712 5711 5711 5711 5710 5710 5709 5709 5708 5708 5707 5706 5705 5704 5704 5703 5702 5700 5699 5698 5696 5695 5694 5693
5710 5709 5708 5707 5706 5705 5704 5703 5703 5702 5701 5701 5701 5700 5700 5699 5699 5698 5698 5698 5697 5697 5697 5696 5695 5695 5694 5694 5693 5692 5691 5689 5688 5687 5686 5685 5684 5682
5698 5697 5696 5694 5694 5693 5692 5691 5690 5690 5689 5689 5689 5689 5688 5688 5687 5687 5687 5686 5685 5685 5685 5684 5683 5683 5682 5682 5681 5681 5679 5678 5677 5676 5675 5674 5673 5671
5687 5685 5684 5683 5682 5681 5680 5679 5678 5678 5677 5677 5677 5677 5677 5676 5676 5676 5675 5674 5674 5673 5673 5672 5672 5671 5670 5670 5670 5669 5668 5666 5665 5665 5663 5662 5661 5660
5675 5674 5673 5672 5670 5669 5668 5667 5666 5666 5666 5665 5665 5665 5665 5665 5664 5664 5663 5662 5662 5661 5661 5660 5659 5659 5658 5658 5657 5657 5656 5655 5654 5653 5652 5652 5650 5649
5664 5663 5662 5660 5659 5657 5656 5655 5655 5655 5654 5654 5654 5654 5654 5653 5653 5652 5651 5651 5650 5649 5649 5648 5647 5647 5646 5646 5645 5645 5644 5643 5642 5641 5641 5640 5639 5638